AirNav   ProFlight Series 2 Aviation Headset
 
 424 users online  

M95 Richard Arthur Field Airport
Fayette, Alabama, USA

GOING TO FAYETTE?


FAA INFORMATION EFFECTIVE 16 JULY 2020

Location

FAA Identifier: M95
Lat/Long: 33-42-32.7810N 087-48-54.7510W
33-42.546350N 087-48.912517W
33.7091058,-87.8152086
(estimated)
Elevation: 357.4 ft. / 108.9 m (surveyed)
Variation: 03W (2020)
From city: 3 miles NE of FAYETTE, AL
Time zone: UTC -5 (UTC -6 during Standard Time)
Zip code: 35555

Airport Operations

Airport use: Open to the public
Activation date: 10/1946
Control tower: no
ARTCC: MEMPHIS CENTER
FSS: ANNISTON FLIGHT SERVICE STATION
NOTAMs facility: ANB (NOTAM-D service available)
Attendance: MON-FRI 0900-1300
Wind indicator: lighted
Segmented circle: yes
Lights: ACTVT PAPI RWY 01 & 19; MIRL RWY 01/19 AND TWY LGTS - CTAF.
Beacon: white-green (lighted land airport)
Operates sunset to sunrise.

Airport Communications

CTAF/UNICOM: 122.8
COLUMBUS APPROACH: 126.075
COLUMBUS DEPARTURE: 126.075
  • APCH/DEP SVC PRVDD BY MEMPHIS ARTCC ON FREQS 127.1/269.4 (COLUMBUS RCAG) WHEN COLUMBUS APCH CTL CLSD.

Nearby radio navigation aids

VOR radial/distance  VOR name  Freq  Var
LDKr330/30.4CRIMSON VORTAC117.8003E
CBMr083/31.4CALEDONIA VORTAC115.2000E
IGBr065/37.4BIGBEE VORTAC116.2004E

Airport Services

Fuel available: 100LL JET-A
Parking: tiedowns
Bottled oxygen: NONE
Bulk oxygen: NONE

Runway Information

Runway 1/19

Dimensions: 5009 x 80 ft. / 1527 x 24 m
Surface: asphalt, in good condition
Weight bearing capacity: 
PCN 10 /F/C/X/T
Single wheel: 15.0
Runway edge lights: medium intensity
RUNWAY 1  RUNWAY 19
Latitude: 33-42.133813N33-42.958893N
Longitude: 087-48.934883W087-48.890157W
Elevation: 330.9 ft.357.4 ft.
Traffic pattern: leftleft
Runway heading: 006 magnetic, 003 true186 magnetic, 183 true
Markings: nonprecision, in good conditionnonprecision, in good condition
Visual slope indicator: 2-light PAPI on left (3.00 degrees glide path)2-light PAPI on left (3.00 degrees glide path)
Touchdown point: yes, no lightsyes, no lights
Obstructions: 29 ft. trees, 1210 ft. from runway, 184 ft. right of centerline, 34:1 slope to clear83 ft. trees, 1299 ft. from runway, 178 ft. left of centerline, 13:1 slope to clear

Airport Ownership and Management from official FAA records

Ownership: Publicly-owned
Owner: CITY OF FAYETTE
203 TEMPLE AVE NORTH
FAYETTE, AL 35555
Phone 205-932-5367
Manager: KIP MADISON
100 21ST STREET NORTH EAST
FAYETTE, AL 35555
Phone 205-932-3819

Airport Operational Statistics

Aircraft based on the field: 9
Single engine airplanes: 8
Helicopters: 1
    
Aircraft operations: avg 42/day *
85% transient general aviation
15% local general aviation
* for 12-month period ending 31 August 2020

Additional Remarks

TWY LGTS FOR TWY TURNOFF ONLY.
DEER ON & INVOF ARPT.
FOR CD CTC COLUMBUS APCH AT 662-434-3044.

Instrument Procedures

NOTE: All procedures below are presented as PDF files. If you need a reader for these files, you should download the free Adobe Reader.

NOT FOR NAVIGATION. Please procure official charts for flight.
FAA instrument procedures published for use from 16 July 2020 at 0901Z to 13 August 2020 at 0900Z.

 
IAPs - Instrument Approach Procedures
RNAV (GPS) RWY 01   download (238KB)
RNAV (GPS) RWY 19 **CHANGED**   download (194KB)
NOTE: Special Take-Off Minimums/Departure Procedures apply   download (329KB)

Other nearby airports with instrument procedures:

M55 - Lamar County Airport (17 nm NW)
3M8 - North Pickens Airport (22 nm SW)
KHAB - Marion County-Rankin Fite Airport (26 nm N)
KJFX - Walker County Airport-Bevill Field (28 nm NE)
KTCL - Tuscaloosa Regional Airport (31 nm S)
 
Loc | Ops | Rwys | IFR | FBO | Links
Com | Nav | Svcs | Stats | Notes
Area around M95 (Richard Arthur Field Airport)
 
Road maps at: MapQuest Bing Google
 
Aerial photo
WARNING: Photo may not be current or correct
Aerial photo of M95 (Richard Arthur Field Airport)
Taken late October 2007

Do you have a better or more recent aerial photo of Richard Arthur Field Airport that you would like to share? If so, please send us your photo.

 
Sectional chart

 
Airport distance calculator
Flying to Richard Arthur Field Airport? Find the distance to fly.

From to M95

Sunrise and sunset
Times for 11-Aug-2020
 Local
(UTC-5)
 Zulu
(UTC)
Morning civil twilight05:4610:46
Sunrise06:1211:12
Sunset19:4000:40
Evening civil twilight20:0701:07

Current date and time
Zulu (UTC)  11-Aug-2020 07:01:40
Local (UTC-5)  11-Aug-2020 02:01:40
 
METAR
KJFX 
28nm NE 
110655Z AUTO 00000KT 4SM BR CLR 22/23 A3001 RMK AO2 PWINO
KTCL 
31nm S 
110653Z AUTO 00000KT 8SM CLR 24/23 A2999 RMK AO2 SLP151 T02440233
KCBM 
32nm W 
110656Z AUTO 00000KT 10SM CLR 25/23 A2999 RMK AO2 SLP156 T02520232 $
KM40 
35nm W 
110655Z AUTO 00000KT 7SM CLR 24/14 A3000 RMK AO2
K1M4 
36nm N 
110656Z AUTO 17005KT 10SM CLR 24/21 A3005 RMK AO2 SLP509 T02390211
KGTR 
41nm W 
110656Z AUTO 18004KT 10SM CLR 24/24 A3000 RMK AO2 SLP161 T02440239 PNO $
TAF
KTCL 
31nm S 
110529Z 1106/1206 00000KT P6SM SKC FM111500 30004KT P6SM FEW045 PROB30 1118/1124 4SM TSRA BKN035CB FM120300 VRB03KT P6SM SCT090
KCBM 
32nm W 
110100Z 1101/1207 VRB06KT 9999 FEW050 QNH2993INS BECMG 1118/1119 24009KT 9999 VCTS SCT045CB QNH2990INS TEMPO 1119/1123 VRB15G25KT 6000 -TSRA SCT040CB BECMG 1122/1123 VRB06KT 9999 NSW FEW050 QNH2992INS TX36/1120Z TN25/1110Z
NOTAMs
Click for the latest NOTAMs
NOTAMs are issued by the DoD/FAA and will open in a separate window not controlled by AirNav.

 

 
 

FBO, Fuel Providers, and Aircraft Ground Support

  
 Business Name 
 
 Contact 
 
 Services / Description 
 
Fuel Prices
 
Comments
  
City of Fayette (FBO) 205-932-3819
no information available

If you are affiliated with City of Fayette (FBO) and would like to show here your services, contact info, web link, logo, and more, click here
100LL Jet A
AS --- $2.65 
SS $3.23 --- 
 Updated 30-Jul-2020
 
   1 read write
AS=Assisted/Self Service
SS=Self service
Update Fuel Prices
 

Would you like to see your business listed on this page?

 If your business provides an interesting product or service to pilots, flight crews, aircraft, or users of the Richard Arthur Field Airport, you should consider listing it here.  To start the listing process, click on the button below
 
Add a business
 

Other Pages about Richard Arthur Field Airport

Update a link
 
Copyright © AirNav, LLC. All rights reserved. Privacy Policy  Contact